STARLINK-32794, 62844

Orbit data source: Space-Track

STARLINK-32794, 62844 is a payload satellite owned by SpaceX/Seattle (US) in LEO that was launched on Mon, 27 Jan 2025 UTC via an FALCON 9 launch vehicle from the Air Force Eastern Test Range (AFETR). Payload-class satellites include a variety of spacecraft equipped with specific instruments for various scientific and technological missions. These include communications satellites like Starlink; space stations such as the ISS; scientific satellites like the Hubble; Earth observation satellites from companies like Planet Labs, Umbra, and HawkEye 360; GPS; miniature CubeSats for education and research; and military/defense satellites.

Loading next visibility...
Identifier
62844, 2025-019R
Orbit
LEO
Country
Flag of USUS
Related business
Manufacturer
SpaceX/Seattle
Mission
Operational Commercial Communications
Bus & Motor
STARLINK V2M, Unknown motor
Mass
730 kg wet, ~700 kg dry
Launch date (UTC)
2025-01-27 (9 months ago)
Launch vehicle
FALCON 9
Launch site
Air Force Eastern Test Range (AFETR)
Object type
Payload
Rocket body
Debris
Shape & HBR
Box + 2 Pan, 17.7 m
Radar Cross Section
33.884 m², Large (>1 m²)

Expand to show TLE details & history
Last TLE update: 14 hours ago

TLE from 14 hours ago
0 STARLINK-32794
1 62844U 25019R   25286.80472382  .00040913  00000-0  14892-2 0  9991
2 62844  43.0007 198.7804 0001263 245.3155 114.7565 15.27554405 39788
Epoch: 2025-10-13T19:18Z
TLE epoch observation values (Epoch: 2025-10-13T19:18:48.138Z)
Latitude
-0.00001°
Longitude
-113.52243°
Altitude
483.264 km
Speed
7.625 km/s
True Right ascension
13h 15m 07s
True Declination
0° 00' 00"
Sunlit
Object was in daylight at epoch
Visualization orbit readout
Latitude
Unknown
Longitude
Unknown
Altitude
Unknown
Speed
Unknown
Apparent Right ascension
Unknown
Apparent Declination
Unknown
Sunlit
N/A
Visualization observer readout
Local Sidereal Time
03:47:14
Azimuth
Unknown
Elevation
Unknown
Doppler factor
Unknown
Orbital elements
Apogee altitude
485.938 km
Perigee altitude
484.204 km
Semi-major axis
6,863.208 km
Eccentricity
0.00013
Inclination
43.0007°
RAAN
198.7804°
Arg. of periapsis
245.3155°
True anomaly
114.76964°
Mean anomaly
114.7565°
Eccentric anomaly
114.76307°
Mean motion
3.81727 °/min
Orbital period
94.31 mins
BSTAR
0.0014892
Loading maneuver chart data...
Computing Atmospheric mass density...
Loading historical data...
Loading historical data...
Loading historical data...
Loading historical data...
Loading historical data...
Loading historical data...
Loading historical data...

Documentation

Showing up to 5 results
|